• In Lithuania
  • List of Countries
  • For 7 days
  • Water Temperature
  • Satellite Maps
  • Weather Map
  • Weather Widgets
  • user-avatar
    Login

    Hourly Weather Istomino

    Today, 23 July, Monday

    Time Temperature Precipitation Wind Pressure Humidity
    00:00 +24°C° 0.2 mm 2 mps 753 mmHg 74%
    01:00 +24°C° 0.1 mm 2 mps 753 mmHg 75%
    02:00 +23°C° 0.1 mm 2 mps 753 mmHg 77%
    03:00 +23°C° 0.1 mm 2 mps 753 mmHg 78%
    04:00 +23°C° 0 mm 2 mps 753 mmHg 78%
    05:00 +23°C° 0 mm 2 mps 753 mmHg 79%
    06:00 +23°C° 0 mm 2 mps 753 mmHg 79%
    07:00 +25°C° 0 mm 2 mps 753 mmHg 72%
    08:00 +27°C° 0 mm 2 mps 753 mmHg 65%
    09:00 +29°C° 0 mm 2 mps 753 mmHg 58%
    10:00 +30°C° 0.7 mm 2 mps 753 mmHg 53%
    11:00 +31°C° 0.7 mm 2 mps 753 mmHg 49%
    12:00 +32°C° 0.7 mm 2 mps 753 mmHg 44%
    13:00 +32°C° 0 mm 2 mps 753 mmHg 42%
    14:00 +34°C° 0 mm 2 mps 752 mmHg 40%
    15:00 +33°C° 0 mm 1 mps 752 mmHg 38%
    16:00 +33°C° 0 mm 1 mps 752 mmHg 40%
    17:00 +32°C° 0 mm 1 mps 752 mmHg 42%
    18:00 +32°C° 0 mm 1 mps 752 mmHg 44%
    19:00 +28°C° 0 mm 0 mps 753 mmHg 47%
    20:00 +27°C° 0 mm 0 mps 753 mmHg 49%
    21:00 +26°C° 0 mm 0 mps 753 mmHg 51%
    22:00 +28°C° 0 mm 1 mps 753 mmHg 53%
    23:00 +27°C° 0 mm 1 mps 753 mmHg 55%

    Tomorrow, 24 July, Tuesday

    Time Temperature Precipitation Wind Pressure Humidity
    00:00 +27°C° 0 mm 1 mps 753 mmHg 56%
    01:00 +26°C° 0.6 mm 2 mps 753 mmHg 62%
    02:00 +25°C° 0.6 mm 2 mps 753 mmHg 69%
    03:00 +24°C° 0.6 mm 2 mps 753 mmHg 75%
    04:00 +24°C° 0.1 mm 2 mps 753 mmHg 76%
    05:00 +24°C° 0.1 mm 2 mps 753 mmHg 77%
    06:00 +24°C° 0.1 mm 1 mps 753 mmHg 78%
    07:00 +26°C° 0.1 mm 2 mps 753 mmHg 72%
    08:00 +27°C° 0.1 mm 3 mps 753 mmHg 66%
    09:00 +29°C° 0.1 mm 3 mps 753 mmHg 60%
    10:00 +30°C° 0.5 mm 3 mps 753 mmHg 57%
    11:00 +30°C° 0.5 mm 3 mps 753 mmHg 55%
    12:00 +31°C° 0.5 mm 3 mps 753 mmHg 52%
    13:00 +31°C° 0.6 mm 3 mps 753 mmHg 51%
    14:00 +31°C° 0.6 mm 3 mps 753 mmHg 51%
    15:00 +31°C° 0.6 mm 3 mps 753 mmHg 51%
    16:00 +31°C° 0.6 mm 3 mps 752 mmHg 51%
    17:00 +31°C° 0.6 mm 2 mps 752 mmHg 52%
    18:00 +31°C° 0.6 mm 2 mps 752 mmHg 53%
    19:00 +30°C° 0 mm 2 mps 752 mmHg 57%
    20:00 +29°C° 0 mm 2 mps 752 mmHg 60%
    21:00 +27°C° 0 mm 2 mps 753 mmHg 64%
    22:00 +27°C° 0 mm 2 mps 752 mmHg 66%
    23:00 +26°C° 0 mm 2 mps 752 mmHg 67%

    Day after tomorrow, 25 July, Wednesday

    Time Temperature Precipitation Wind Pressure Humidity
    00:00 +26°C° 0 mm 2 mps 752 mmHg 69%
    01:00 +26°C° 0 mm 2 mps 752 mmHg 70%
    02:00 +25°C° 0 mm 2 mps 752 mmHg 70%
    03:00 +25°C° 0 mm 3 mps 752 mmHg 71%
    04:00 +25°C° 0 mm 3 mps 752 mmHg 72%
    05:00 +25°C° 0 mm 3 mps 753 mmHg 73%
    06:00 +25°C° 0 mm 4 mps 753 mmHg 73%
    07:00 +27°C° 0.1 mm 4 mps 753 mmHg 69%
    08:00 +28°C° 0.1 mm 4 mps 753 mmHg 65%
    09:00 +30°C° 0.1 mm 5 mps 753 mmHg 61%
    10:00 +32°C° 0.1 mm 5 mps 753 mmHg 55%
    11:00 +34°C° 0.1 mm 6 mps 753 mmHg 48%
    12:00 +35°C° 0.1 mm 6 mps 753 mmHg 42%
    13:00 +36°C° 0 mm 6 mps 753 mmHg 39%
    14:00 +38°C° 0 mm 6 mps 752 mmHg 37%
    15:00 +38°C° 0 mm 6 mps 752 mmHg 34%
    16:00 +37°C° 0 mm 5 mps 752 mmHg 36%
    17:00 +36°C° 0 mm 5 mps 752 mmHg 38%
    18:00 +35°C° 0 mm 4 mps 752 mmHg 40%
    19:00 +34°C° 0.6 mm 3 mps 752 mmHg 45%
    20:00 +31°C° 0.6 mm 3 mps 752 mmHg 50%
    21:00 +30°C° 0.6 mm 2 mps 753 mmHg 56%
    22:00 +29°C° 0.1 mm 3 mps 753 mmHg 54%
    23:00 +29°C° 0.1 mm 4 mps 753 mmHg 53%

    26 July, Thursday

    Time Temperature Precipitation Wind Pressure Humidity
    00:00 +28°C° 0.1 mm 4 mps 753 mmHg 52%
    01:00 +27°C° 0.4 mm 4 mps 753 mmHg 53%
    02:00 +26°C° 0.4 mm 5 mps 753 mmHg 53%
    03:00 +25°C° 0.4 mm 5 mps 753 mmHg 54%
    04:00 +25°C° 0.2 mm 5 mps 753 mmHg 57%
    05:00 +23°C° 0.2 mm 5 mps 753 mmHg 59%
    06:00 +23°C° 0.2 mm 5 mps 754 mmHg 62%
    07:00 +26°C° 0.1 mm 5 mps 754 mmHg 58%
    08:00 +27°C° 0.1 mm 5 mps 754 mmHg 55%
    09:00 +29°C° 0.1 mm 5 mps 754 mmHg 51%
    10:00 +32°C° 0 mm 5 mps 754 mmHg 47%
    11:00 +33°C° 0 mm 5 mps 754 mmHg 43%
    12:00 +35°C° 0 mm 6 mps 754 mmHg 39%
    13:00 +36°C° 0 mm 6 mps 754 mmHg 38%
    14:00 +38°C° 0 mm 6 mps 754 mmHg 38%
    15:00 +38°C° 0 mm 7 mps 753 mmHg 37%
    16:00 +38°C° 0 mm 7 mps 753 mmHg 39%
    17:00 +36°C° 0 mm 6 mps 754 mmHg 40%
    18:00 +36°C° 0 mm 6 mps 754 mmHg 41%
    19:00 +34°C° 0.3 mm 6 mps 754 mmHg 44%
    20:00 +32°C° 0.3 mm 6 mps 754 mmHg 47%
    21:00 +30°C° 0.3 mm 5 mps 754 mmHg 50%
    22:00 +29°C° 0.1 mm 5 mps 754 mmHg 49%
    23:00 +29°C° 0.1 mm 5 mps 755 mmHg 48%

    27 July, Friday

    Time Temperature Precipitation Wind Pressure Humidity
    00:00 +28°C° 0.1 mm 5 mps 755 mmHg 47%
    01:00 +27°C° 0.2 mm 5 mps 755 mmHg 48%
    02:00 +27°C° 0.2 mm 5 mps 755 mmHg 50%
    03:00 +26°C° 0.2 mm 5 mps 755 mmHg 52%
    04:00 +26°C° 0.1 mm 5 mps 755 mmHg 52%
    05:00 +26°C° 0.1 mm 5 mps 755 mmHg 52%
    06:00 +25°C° 0.1 mm 5 mps 755 mmHg 53%
    07:00 +27°C° 0 mm 6 mps 755 mmHg 48%
    08:00 +29°C° 0 mm 6 mps 755 mmHg 44%
    09:00 +32°C° 0 mm 7 mps 755 mmHg 39%
    10:00 +33°C° 0 mm 7 mps 755 mmHg 36%
    11:00 +35°C° 0 mm 7 mps 755 mmHg 33%
    12:00 +38°C° 0 mm 7 mps 755 mmHg 29%
    13:00 +38°C° 0 mm 7 mps 754 mmHg 28%
    14:00 +39°C° 0 mm 7 mps 754 mmHg 28%
    15:00 +40°C° 0 mm 7 mps 754 mmHg 27%
    16:00 +39°C° 0 mm 6 mps 753 mmHg 28%
    17:00 +39°C° 0 mm 5 mps 753 mmHg 29%
    18:00 +38°C° 0 mm 4 mps 753 mmHg 31%
    19:00 +36°C° 0.3 mm 5 mps 753 mmHg 34%
    20:00 +35°C° 0.3 mm 6 mps 754 mmHg 38%
    21:00 +33°C° 0.3 mm 6 mps 754 mmHg 41%
    22:00 +32°C° 0.4 mm 7 mps 754 mmHg 43%
    23:00 +30°C° 0.4 mm 7 mps 754 mmHg 45%

    28 July, Saturday

    Time Temperature Precipitation Wind Pressure Humidity
    00:00 +29°C° 0.4 mm 7 mps 754 mmHg 47%
    01:00 +28°C° 0.4 mm 6 mps 754 mmHg 49%
    02:00 +27°C° 0.4 mm 6 mps 754 mmHg 52%
    03:00 +26°C° 0.4 mm 5 mps 755 mmHg 54%
    04:00 +26°C° 0 mm 5 mps 755 mmHg 54%
    05:00 +25°C° 0 mm 5 mps 755 mmHg 54%
    06:00 +25°C° 0 mm 5 mps 755 mmHg 53%
    07:00 +27°C° 0 mm 6 mps 755 mmHg 47%
    08:00 +29°C° 0 mm 6 mps 755 mmHg 41%
    09:00 +32°C° 0 mm 7 mps 755 mmHg 34%
    10:00 +34°C° 0 mm 7 mps 755 mmHg 31%
    11:00 +35°C° 0 mm 7 mps 755 mmHg 28%
    12:00 +38°C° 0 mm 8 mps 754 mmHg 25%
    13:00 +39°C° 0 mm 8 mps 754 mmHg 24%
    14:00 +39°C° 0 mm 8 mps 754 mmHg 23%
    15:00 +40°C° 0 mm 8 mps 754 mmHg 23%
    16:00 +39°C° 0 mm 8 mps 754 mmHg 25%
    17:00 +38°C° 0 mm 8 mps 754 mmHg 27%
    18:00 +37°C° 0 mm 8 mps 754 mmHg 29%
    19:00 +34°C° 0.1 mm 8 mps 754 mmHg 31%
    20:00 +33°C° 0.1 mm 8 mps 754 mmHg 33%
    21:00 +31°C° 0.1 mm 8 mps 754 mmHg 35%
    22:00 +30°C° 0.2 mm 7 mps 755 mmHg 35%
    23:00 +29°C° 0.2 mm 7 mps 755 mmHg 34%
    Show more